Date String (YYYY-MM-DD hh:mm:ss) UTC,Instrument flags,absolute air pressure of the measurement (hPa),sample flow rate (lpm),inlet stack bypass flow (lpm),air temperature of the measurement (°C),ambient temperature measured by the external sensor (°C),aerosol sample conditioner tube jacket temperature (°C),OPC LED temperature (°C),internal box temperature (°C),relative humidity of the measurement (%),span deviation,mass concentration of particles derived from Lorenz-Mie calculation of OPC scattering (μg/m³),mass concentration of particles derived from Lorenz-Mie calculation of OPC scattering (μg/m³),mass concentration of particles derived from Lorenz-Mie calculation of OPC scattering (μg/m³)
DateTimeUTC,F1_M11,P_M11,Q1_M11,Q2_M11,T1_M11,T2_M11,T3_M11,T4_M11,T5_M11,U1_M11,ZSPAN_M11,X2_M11,X0_M11,X1_M11
2024-05-03 09:00:00,SystemResetWarning,0825.3,5.01,000.00,024.4,023.6,000.0,033.0,026.2,014.7,0000.0,0003.91,0010.81,0002.64
2024-05-03 09:01:00,SystemResetWarning,0825.2,5.00,000.00,024.4,023.6,000.0,033.0,026.2,015.0,0000.0,0003.94,0011.17,0002.65
2024-05-03 09:02:00,SystemResetWarning,0825.2,5.00,000.00,024.4,023.7,000.0,033.0,026.3,014.7,0000.0,0003.94,0010.87,0002.66
2024-05-03 09:03:00,SystemResetWarning,0825.2,4.99,000.00,024.4,023.7,000.0,033.0,026.2,014.1,0000.0,0003.91,0011.26,0002.66
2024-05-03 09:04:00,SystemResetWarning,0825.2,4.99,000.00,024.4,023.7,000.0,033.0,026.3,014.6,0000.0,0003.87,0011.01,0002.66
2024-05-03 09:05:00,SystemResetWarning,0825.2,5.00,000.00,024.4,023.7,000.0,033.0,026.3,014.4,0000.0,0003.81,0010.64,0002.65
2024-05-03 09:06:00,SystemResetWarning,0825.2,5.01,000.00,024.4,023.7,000.0,033.0,026.2,014.2,0000.0,0003.83,0010.57,0002.67
2024-05-03 09:07:00,SystemResetWarning,0825.1,5.01,000.00,024.4,023.7,000.0,033.0,026.3,014.1,0000.0,0003.87,0011.07,0002.66
2024-05-03 09:08:00,SystemResetWarning,0825.1,4.99,000.00,024.4,023.7,000.0,033.0,026.3,014.1,0000.0,0003.87,0011.12,0002.65
2024-05-03 09:09:00,SystemResetWarning,0825.1,4.99,000.00,024.5,023.7,000.0,033.0,026.3,013.5,0000.0,0003.91,0010.77,0002.66
2024-05-03 09:10:00,SystemResetWarning,0825.1,5.01,000.00,024.5,023.8,000.0,033.0,026.3,013.3,0000.0,0003.89,0010.98,0002.64
2024-05-03 09:11:00,SystemResetWarning,0825.1,5.01,000.00,024.5,023.8,000.0,033.0,026.3,013.2,0000.0,0003.88,0011.20,0002.63
2024-05-03 09:12:00,SystemResetWarning,0825.1,4.99,000.00,024.5,023.8,000.0,032.9,026.3,013.3,0000.0,0003.84,0010.86,0002.61
2024-05-03 09:13:00,SystemResetWarning,0825.1,4.99,000.00,024.5,023.8,000.0,033.0,026.3,013.2,0000.0,0003.80,0010.67,0002.59
2024-05-03 09:14:00,SystemResetWarning,0825.0,5.00,000.00,024.5,023.8,000.0,033.0,026.3,013.2,0000.0,0003.79,0010.22,0002.58
2024-05-03 09:15:00,SystemResetWarning,0825.0,5.02,000.00,024.5,023.9,000.0,033.0,026.3,013.0,0000.0,0003.81,0009.92,0002.55
2024-05-03 09:16:00,SystemResetWarning,0825.0,5.01,000.00,024.5,023.9,000.0,033.0,026.4,013.0,0000.0,0003.83,0010.50,0002.55
2024-05-03 09:17:00,SystemResetWarning,0825.0,4.99,000.00,024.6,023.9,000.0,032.9,026.4,012.9,0000.0,0003.78,0010.82,0002.51
2024-05-03 09:18:00,SystemResetWarning,0825.0,5.00,000.00,024.6,023.9,000.0,032.9,026.4,012.8,0000.0,0003.70,0010.38,0002.46
2024-05-03 09:19:00,SystemResetWarning,0825.0,5.01,000.00,024.6,023.9,000.0,032.9,026.4,012.7,0000.0,0003.65,0009.63,0002.42
2024-05-03 09:20:00,SystemResetWarning,0825.0,5.00,000.00,024.6,023.9,000.0,032.9,026.4,012.7,0000.0,0003.65,0010.26,0002.37
2024-05-03 09:21:00,SystemResetWarning,0825.0,4.99,000.00,024.6,023.9,000.0,032.9,026.4,012.7,0000.0,0003.63,0010.95,0002.34
2024-05-03 09:22:00,SystemResetWarning,0825.0,5.00,000.00,024.6,024.0,000.0,033.0,026.4,012.7,0000.0,0003.59,0010.22,0002.32
2024-05-03 09:23:00,SystemResetWarning,0825.0,4.99,000.00,024.6,024.0,000.0,033.0,026.4,012.7,0000.0,0003.58,0010.34,0002.29
2024-05-03 09:24:00,SystemResetWarning,0824.9,5.00,000.00,024.6,024.0,000.0,033.0,026.4,012.7,0000.0,0003.59,0010.87,0002.26
2024-05-03 09:25:00,SystemResetWarning,0824.9,5.01,000.00,024.6,024.0,000.0,033.0,026.4,012.7,0000.0,0003.57,0011.21,0002.22
2024-05-03 09:26:00,SystemResetWarning,0824.9,5.01,000.00,024.6,024.0,000.0,033.0,026.4,012.7,0000.0,0003.57,0011.33,0002.22
2024-05-03 09:27:00,SystemResetWarning,0824.9,5.00,000.00,024.6,024.0,000.0,033.0,026.4,012.7,0000.0,0003.57,0011.02,0002.20
2024-05-03 09:28:00,SystemResetWarning,0824.9,5.00,000.00,024.6,024.0,000.0,033.0,026.4,012.6,0000.0,0003.59,0011.11,0002.19
2024-05-03 09:29:00,SystemResetWarning,0824.9,5.00,000.00,024.6,024.0,000.0,033.0,026.4,012.5,0000.0,0003.60,0011.17,0002.19
2024-05-03 09:30:00,SystemResetWarning,0824.9,5.00,000.00,024.7,024.0,000.0,033.0,026.4,012.6,0000.0,0003.55,0011.08,0002.18
2024-05-03 09:31:00,SystemResetWarning,0824.9,4.99,000.00,024.7,024.0,000.0,033.0,026.4,012.6,0000.0,0003.51,0010.45,0002.17
2024-05-03 09:32:00,SystemResetWarning,0824.9,5.00,000.00,024.7,024.0,000.0,033.0,026.4,012.6,0000.0,0003.52,0010.26,0002.17
2024-05-03 09:33:00,SystemResetWarning,0824.8,5.00,000.00,024.7,024.0,000.0,033.0,026.4,012.6,0000.0,0003.53,0011.37,0002.15
2024-05-03 09:34:00,SystemResetWarning,0824.7,5.00,000.00,024.7,024.0,000.0,033.0,026.5,012.7,0000.0,0003.50,0011.50,0002.14
2024-05-03 09:35:00,SystemResetWarning,0824.7,5.00,000.00,024.7,024.0,000.0,033.0,026.4,012.7,0000.0,0003.49,0011.64,0002.14
2024-05-03 09:36:00,SystemResetWarning,0824.7,5.00,000.00,024.7,024.0,000.0,033.0,026.5,012.7,0000.0,0003.48,0011.19,0002.13
2024-05-03 09:37:00,SystemResetWarning,0824.8,5.00,000.00,024.7,024.0,000.0,033.1,026.5,012.7,0000.0,0003.45,0011.42,0002.12
2024-05-03 09:38:00,SystemResetWarning,0824.8,5.00,000.00,024.7,024.0,000.0,033.1,026.5,012.8,0000.0,0003.41,0011.22,0002.11
2024-05-03 09:39:00,SystemResetWarning,0824.9,5.00,000.00,024.7,024.0,000.0,033.1,026.5,012.9,0000.0,0003.39,0010.71,0002.11
2024-05-03 09:40:00,SystemResetWarning,0824.9,5.01,000.00,024.7,024.0,000.0,033.0,026.5,013.1,0000.0,0003.39,0011.09,0002.10
2024-05-03 09:41:00,SystemResetWarning,0824.9,5.00,000.00,024.7,024.0,000.0,033.0,026.5,013.1,0000.0,0003.43,0011.24,0002.12
2024-05-03 09:42:00,SystemResetWarning,0824.9,5.01,000.00,024.7,024.0,000.0,033.0,026.5,013.3,0000.0,0003.43,0011.32,0002.13
2024-05-03 09:43:00,SystemResetWarning,0824.8,5.00,000.00,024.7,024.0,000.0,033.1,026.5,013.3,0000.0,0003.41,0011.25,0002.13
2024-05-03 09:44:00,SystemResetWarning,0824.9,5.01,000.00,024.7,024.0,000.0,033.1,026.5,013.4,0000.0,0003.39,0009.81,0002.13
2024-05-03 09:45:00,SystemResetWarning,0824.8,5.00,000.00,024.7,024.1,000.0,033.0,026.5,013.5,0000.0,0003.43,0009.52,0002.15
2024-05-03 09:46:00,SystemResetWarning,0824.8,4.99,000.00,024.7,024.1,000.0,033.1,026.5,013.5,0000.0,0003.46,0009.58,0002.15
2024-05-03 09:47:00,SystemResetWarning,0824.8,5.00,000.00,024.7,024.1,000.0,033.0,026.5,013.6,0000.0,0003.47,0009.62,0002.15
2024-05-03 09:48:00,SystemResetWarning,0824.9,5.00,000.00,024.7,024.1,000.0,033.0,026.5,013.7,0000.0,0003.46,0010.05,0002.16
2024-05-03 09:49:00,SystemResetWarning,0824.9,5.00,000.00,024.7,024.1,000.0,033.1,026.5,013.6,0000.0,0003.42,0010.07,0002.18
2024-05-03 09:50:00,SystemResetWarning,0824.9,5.00,000.00,024.7,024.1,000.0,033.1,026.5,013.6,0000.0,0003.42,0010.05,0002.19
2024-05-03 09:51:00,SystemResetWarning,0824.9,5.01,000.00,024.7,024.1,000.0,033.1,026.5,013.6,0000.0,0003.42,0009.67,0002.19
2024-05-03 09:52:00,SystemResetWarning,0824.9,5.00,000.00,024.7,024.0,000.0,033.1,026.5,013.7,0000.0,0003.41,0009.60,0002.18
2024-05-03 09:53:00,SystemResetWarning,0824.9,5.01,000.00,024.7,024.0,000.0,033.1,026.5,013.6,0000.0,0003.39,0009.51,0002.16
2024-05-03 09:54:00,SystemResetWarning,0824.9,5.00,000.00,024.7,023.9,000.0,033.1,026.4,013.7,0000.0,0003.35,0009.32,0002.16
2024-05-03 09:55:00,SystemResetWarning,0824.9,5.00,000.00,024.6,023.9,000.0,033.1,026.4,013.7,0000.0,0003.34,0010.00,0002.17
2024-05-03 09:56:00,SystemResetWarning,0824.8,5.00,000.00,024.6,023.9,000.0,033.1,026.3,013.8,0000.0,0003.36,0010.48,0002.16
2024-05-03 09:57:00,SystemResetWarning,0824.9,4.99,000.00,024.6,023.8,000.0,033.1,026.4,013.7,0000.0,0003.33,0011.07,0002.16
2024-05-03 09:58:00,SystemResetWarning,0824.9,5.00,000.00,024.6,023.8,000.0,033.1,026.3,013.6,0000.0,0003.33,0011.53,0002.16
2024-05-03 09:59:00,SystemResetWarning,0824.9,5.00,000.00,024.6,023.8,000.0,033.1,026.3,013.6,0000.0,0003.36,0011.08,0002.15
